Date,TemperatureHighF,TemperatureAvgF,TemperatureLowF,DewpointHighF,DewpointAvgF,DewpointLowF,HumidityHigh,HumidityAvg,HumidityLow,PressureMaxIn,PressureMinIn,WindSpeedMaxMPH,WindSpeedAvgMPH,GustSpeedMaxMPH,PrecipitationSumIn
2012-1-1,46.2,40.4,34.3,44.0,38.5,33.2,97,93,89,30.27,30.02,114,90,114,0.00
2012-1-2,47.8,42.0,36.3,45.9,39.5,34.4,97,91,79,30.17,29.86,114,90,114,0.00
2012-1-3,49.8,47.2,42.6,46.6,44.7,40.7,94,91,88,30.24,30.18,114,12,114,0.02
2012-1-4,53.4,48.8,46.6,49.0,46.9,41.9,97,93,65,30.12,29.96,114,21,114,0.18
2012-1-5,46.6,43.2,38.8,44.7,40.4,37.0,94,90,85,30.32,30.10,0,0,0,0.00
2012-1-6,41.2,38.0,35.4,39.8,36.5,34.1,96,95,93,30.32,30.22,114,1,114,0.02
2012-1-7,42.4,38.7,34.9,41.4,37.6,33.5,97,96,95,30.40,30.29,0,0,0,0.00
2012-1-8,49.1,43.7,39.4,47.4,42.5,38.6,97,95,93,30.33,30.15,0,0,0,0.00
2012-1-9,49.8,45.3,40.8,46.0,43.4,39.5,96,93,78,30.23,30.15,0,0,0,0.06
2012-1-10,40.8,35.4,29.3,39.5,33.7,27.8,96,94,85,30.48,30.23,0,0,0,0.00
2012-1-11,36.3,30.7,27.7,34.3,29.1,26.3,95,94,92,30.47,30.33,0,0,0,0.00
2012-1-12,37.0,31.2,26.6,35.2,29.7,25.1,95,94,92,30.36,30.23,0,0,0,0.00
2012-1-13,36.3,31.5,26.4,34.5,30.0,25.2,96,94,92,30.27,30.00,0,0,0,0.00
2012-1-14,35.8,33.5,32.2,35.0,32.4,31.2,97,96,94,30.00,29.82,0,0,0,0.02
2012-1-15,36.0,31.1,27.7,34.2,29.8,26.2,96,95,92,30.04,29.92,0,0,1,0.00
2012-1-16,32.9,30.8,27.3,31.9,29.5,25.8,96,95,94,30.07,29.87,0,0,1,0.00
2012-1-17,32.9,32.7,32.7,31.9,31.8,31.7,97,96,96,29.87,29.76,0,0,0,0.00
2012-1-18,33.4,28.9,27.7,31.3,27.0,25.7,94,93,92,29.93,29.59,0,0,0,0.02
2012-1-19,28.2,27.2,25.5,26.5,25.2,23.5,93,92,90,29.73,29.52,0,0,0,0.02
2012-1-20,40.1,35.6,28.2,39.6,34.8,26.5,99,97,93,29.71,29.02,114,6,114,0.02
2012-1-21,41.2,37.5,33.4,40.9,37.1,32.9,99,98,98,29.81,29.00,0,0,0,0.00
2012-1-22,38.7,37.3,33.4,37.4,36.3,32.9,99,97,93,29.86,29.40,114,3,114,0.02
2012-1-23,44.2,37.4,33.6,39.7,35.5,31.9,98,93,81,29.99,29.76,0,0,0,0.00
2012-1-24,48.0,40.3,33.1,47.0,38.9,31.5,99,95,84,29.95,29.60,0,0,0,0.00
2012-1-25,46.2,40.3,37.4,43.8,39.1,36.0,98,96,89,30.21,29.81,0,0,0,0.00
2012-1-26,44.4,38.9,32.2,43.9,36.0,30.1,98,89,75,30.54,29.86,0,0,0,0.00
2012-1-27,41.4,34.1,30.7,35.6,31.5,28.4,96,90,78,30.58,30.44,0,0,0,0.00
2012-1-28,49.6,39.3,31.6,38.7,32.9,29.9,94,79,56,30.44,30.02,0,0,0,0.00
2012-1-29,52.0,47.0,43.0,46.9,44.6,38.7,97,92,65,30.02,29.73,0,0,0,0.29
2012-1-30,45.7,43.0,41.5,44.9,42.1,40.5,97,96,96,30.02,29.77,0,0,0,0.06
2012-1-31,47.5,42.9,41.2,43.9,41.2,40.0,97,93,85,30.03,29.86,0,0,0,0.00
2012-2-1,45.5,41.2,35.1,43.5,39.9,33.9,97,95,90,30.41,29.82,0,0,0,0.00
2012-2-2,47.3,37.8,32.9,43.7,36.2,31.5,97,94,86,30.43,30.21,0,0,0,0.00
2012-2-3,50.9,38.3,31.3,44.5,34.5,29.9,98,87,64,30.22,30.03,0,0,0,0.00
2012-2-4,55.0,40.3,30.9,40.5,32.8,28.4,92,76,52,30.17,30.08,0,0,0,0.00
2012-2-5,53.2,40.1,32.7,41.2,33.6,28.7,89,78,60,30.19,30.09,0,0,0,0.00
2012-2-6,56.8,38.0,29.7,40.6,31.9,27.4,93,81,42,30.09,29.91,0,0,0,0.00
2012-2-7,57.9,47.2,37.9,34.9,31.6,28.4,69,56,38,29.97,29.81,0,0,0,0.02
2012-2-8,48.7,45.4,42.4,45.3,41.0,32.2,92,85,64,30.24,29.97,0,0,0,0.00
2012-2-9,49.6,45.5,41.4,47.9,44.1,39.5,96,95,92,30.24,30.01,0,0,0,0.12
2012-2-10,54.5,47.1,43.3,52.9,45.8,42.4,97,95,90,30.01,29.88,1,0,1,0.00
2012-2-11,49.3,45.0,42.4,45.5,43.0,40.5,97,93,84,30.12,30.02,0,0,2,0.00
2012-2-12,48.9,43.6,40.6,42.6,40.5,38.7,93,89,78,30.09,29.85,0,0,0,0.00
2012-2-13,45.3,42.4,40.5,43.7,40.8,38.8,95,94,93,30.01,29.88,0,0,0,0.00
2012-2-14,42.6,38.9,33.4,40.3,37.3,31.8,96,94,91,30.14,29.87,0,0,0,0.00
2012-2-15,45.9,38.5,34.2,41.4,36.3,32.8,96,92,81,30.33,30.15,0,0,0,0.00
2012-2-16,42.4,39.4,35.4,41.4,38.1,33.8,96,95,94,30.25,30.15,0,0,0,0.00
2012-2-17,48.6,42.6,38.5,47.5,41.4,37.4,98,96,93,30.21,29.76,4,0,7,0.00
2012-2-18,40.3,39.8,39.4,38.9,37.7,36.7,95,92,89,29.88,29.85,6,1,7,0.00
2012-2-19,41.7,37.5,34.2,40.1,36.1,32.9,96,95,92,30.05,29.88,0,0,0,0.08
2012-2-20,44.4,41.4,32.5,42.5,40.3,31.2,97,96,91,29.97,29.84,0,0,0,0.06
2012-2-21,46.9,45.4,43.0,46.4,44.9,42.2,98,98,97,30.02,29.95,3,0,4,0.94
2012-2-22,47.7,44.0,40.8,45.7,40.6,36.3,98,88,75,30.25,29.90,9,0,9,0.04
2012-2-23,46.8,41.3,37.4,39.6,37.3,34.6,92,86,76,30.34,30.23,1,0,1,0.00
2012-2-24,44.2,41.3,37.4,43.2,39.6,35.5,96,94,89,30.23,29.53,4,0,4,0.00
2012-2-25,41.9,38.0,34.5,40.8,36.3,32.5,96,94,91,30.12,29.52,5,0,5,0.13
2012-2-26,40.3,34.6,28.9,35.9,31.6,26.9,95,89,75,30.14,30.07,2,0,5,0.00
2012-2-27,42.1,32.2,25.5,32.8,28.1,23.5,93,85,67,30.17,29.93,0,0,0,0.00
2012-2-28,44.4,36.0,28.6,34.4,30.5,26.8,93,81,58,29.93,29.43,6,0,6,0.00
2012-2-29,37.2,35.0,33.4,35.9,33.2,31.0,95,93,86,29.73,29.48,4,0,6,0.00
2012-3-1,38.5,33.8,32.9,36.6,32.5,31.6,96,95,93,30.29,29.73,0,0,0,0.03
2012-3-2,39.9,37.4,33.6,39.1,36.4,32.5,97,97,96,30.35,30.28,0,0,0,0.00
2012-3-3,50.2,44.3,39.9,49.3,43.4,39.1,98,97,94,30.31,30.26,3,0,3,0.00
2012-3-4,49.6,45.6,43.3,46.3,43.6,42.0,97,93,87,30.30,29.91,5,0,5,0.00
2012-3-5,45.7,38.8,32.7,42.4,36.7,31.2,94,92,88,29.91,29.66,8,0,8,0.02
2012-3-6,41.5,34.6,29.3,37.4,31.3,27.0,95,88,66,30.31,29.84,3,0,3,0.00
2012-3-7,43.9,34.4,26.6,35.3,30.2,24.8,94,85,67,30.42,30.31,0,0,0,0.00
2012-3-8,57.0,42.1,29.5,48.3,37.9,27.7,95,85,69,30.34,30.10,0,0,0,0.00
2012-3-9,47.7,44.1,39.4,44.3,41.3,36.4,96,90,79,30.18,29.91,4,0,4,0.44
2012-3-10,44.4,43.0,42.1,43.4,42.0,41.0,97,96,95,29.91,29.82,5,0,5,0.11
2012-3-11,37.9,37.5,37.0,34.2,33.9,33.5,89,87,85,29.69,29.64,2,0,2,0.00
2012-3-12,42.6,38.8,35.4,41.0,36.5,33.1,95,92,78,29.65,29.30,7,0,7,0.38
2012-3-13,40.8,36.6,34.0,38.1,34.4,32.3,95,92,83,29.83,29.31,6,0,6,0.09
2012-3-14,35.2,35.1,34.7,33.1,33.0,32.5,92,92,91,29.83,29.80,0,0,0,0.00
2012-3-15,49.6,45.6,40.5,47.5,43.5,39.4,98,92,89,29.65,29.45,6,0,6,0.28
2012-3-16,49.3,41.6,38.1,42.3,38.7,35.8,95,89,72,29.66,29.33,4,0,4,0.06
2012-3-17,40.3,39.8,39.4,36.7,36.4,36.0,89,88,86,29.35,29.30,0,0,0,0.00
2012-3-18,42.1,37.3,34.5,39.1,35.2,32.6,94,92,89,29.79,29.58,0,0,0,0.02
2012-3-19,45.1,37.5,31.6,37.7,34.2,30.3,95,88,74,29.86,29.64,0,0,0,0.00
2012-3-20,47.1,41.5,38.5,40.1,37.8,34.9,96,87,71,29.89,29.47,6,0,6,0.00
2012-3-21,49.1,40.7,33.4,38.5,34.0,31.5,94,78,54,29.98,29.77,114,19,114,0.06
2012-3-22,48.9,40.6,34.0,40.2,35.1,31.3,93,81,59,30.01,29.75,114,28,114,0.00
2012-3-23,50.7,41.0,30.0,39.1,32.7,27.6,93,73,54,30.03,29.92,114,4,114,0.00
2012-3-24,53.8,37.3,30.6,41.8,32.4,27.6,90,83,64,30.02,29.84,1,0,1,0.00
2012-3-25,52.3,40.2,33.1,43.6,36.2,30.2,91,86,72,29.85,29.66,0,0,0,0.00
2012-3-26,50.4,44.8,38.5,44.9,41.5,35.2,94,88,76,29.78,29.68,4,0,4,0.06
2012-3-27,53.8,44.1,37.9,44.4,40.0,35.0,91,86,66,29.70,29.47,0,0,0,0.04
2012-3-28,51.3,46.1,41.5,44.7,41.8,39.3,92,85,71,29.78,29.48,6,0,6,0.02
2012-3-29,47.7,44.4,41.5,45.6,42.7,39.4,95,94,92,29.66,29.37,3,0,3,0.00
2012-3-30,49.1,43.3,37.2,46.5,41.4,35.3,95,93,89,29.74,29.41,5,0,5,0.04
2012-3-31,46.8,40.8,36.3,44.9,39.2,34.7,95,94,93,29.68,29.35,0,0,0,0.00
2012-4-1,49.3,42.6,38.3,44.9,40.1,36.9,96,91,80,30.15,29.45,8,0,8,0.00
2012-4-2,55.2,44.4,39.4,46.4,39.7,36.8,96,85,59,30.19,29.82,3,0,3,0.00
2012-4-3,51.1,45.3,38.1,43.4,38.9,35.7,92,79,62,29.94,29.68,4,0,4,0.00
2012-4-4,49.6,41.8,35.8,43.4,37.4,32.1,94,85,64,30.05,29.91,6,0,6,0.00
2012-4-5,50.9,41.2,32.9,42.9,36.4,30.0,93,83,68,30.12,30.05,4,0,4,0.00
2012-4-6,48.6,41.6,35.8,43.3,38.0,32.8,93,87,73,30.26,30.11,3,0,3,0.00
2012-4-7,55.2,38.0,30.9,39.1,31.7,28.9,94,80,41,30.26,30.12,0,0,0,0.00
2012-4-8,58.1,44.3,39.4,36.2,32.3,30.6,76,64,37,30.15,29.95,0,0,0,0.00
2012-4-9,61.0,48.5,40.6,42.3,37.3,33.4,78,66,48,29.97,29.79,0,0,0,0.00
2012-4-10,62.4,49.5,42.6,47.4,42.0,37.5,86,76,54,29.79,29.67,0,0,0,0.00
2012-4-11,52.0,48.5,43.7,47.4,44.5,39.8,92,86,78,29.74,29.61,0,0,0,0.08
2012-4-12,46.9,46.2,44.4,44.8,44.1,42.3,93,92,92,29.69,29.67,0,0,0,0.00
2012-4-13,59.2,49.6,33.6,48.7,41.5,31.2,94,75,58,29.87,29.77,0,0,0,0.00
2012-4-14,61.7,47.0,35.4,47.2,39.4,32.4,93,76,52,30.10,29.87,0,0,0,0.00
2012-4-15,63.0,51.6,44.2,46.9,41.7,38.7,85,70,48,30.16,29.94,3,0,3,0.00
2012-4-16,55.6,48.0,42.4,50.6,44.2,40.0,94,87,73,30.16,29.83,9,0,9,0.00
2012-4-17,51.4,45.4,40.3,44.9,41.4,38.1,93,86,71,30.18,29.94,6,0,6,0.00
2012-4-18,56.7,48.0,43.0,48.1,43.9,40.3,93,86,65,30.04,29.91,4,0,4,0.00
2012-4-19,57.9,47.3,37.6,48.9,44.0,35.6,95,89,66,30.05,29.93,3,0,3,0.00
2012-4-20,56.8,49.7,42.4,48.9,45.8,39.4,95,87,68,30.20,29.95,1,0,1,0.00
2012-4-21,66.9,52.2,36.7,52.3,45.0,34.5,94,78,57,30.16,29.96,0,0,0,0.00
2012-4-22,70.9,50.7,45.5,55.8,46.2,42.4,93,86,56,29.97,29.83,0,0,0,0.00
2012-4-26,50.7,48.2,44.6,48.7,45.9,42.4,95,92,81,29.94,29.57,0,0,0,0.00
2012-4-27,56.8,48.9,43.5,45.8,42.7,41.2,92,80,57,30.24,29.98,2,0,2,0.00
2012-4-28,63.9,53.6,45.1,49.9,45.9,42.0,90,76,60,30.24,30.14,0,0,0,0.00
2012-4-29,60.4,54.1,50.2,52.8,49.5,47.5,92,85,73,30.15,29.77,114,5,114,0.00
2012-4-30,54.7,48.6,43.0,49.2,45.5,40.8,94,90,78,29.84,29.62,6,0,6,0.00
2012-5-1,52.0,45.3,41.9,47.0,42.4,39.6,94,90,83,29.92,29.85,0,0,0,0.00
2012-5-2,55.2,48.8,40.8,47.4,43.8,38.8,94,83,70,29.97,29.73,4,0,4,0.00
2012-5-3,56.7,48.8,43.7,51.6,46.0,41.7,93,90,80,29.91,29.56,0,0,0,0.00
2012-5-4,50.9,45.5,41.9,47.4,43.1,39.9,94,91,86,30.31,29.91,1,0,1,0.00
2012-5-5,55.2,46.9,39.9,47.9,42.5,38.0,94,85,70,30.46,30.31,0,0,0,0.00
2012-5-6,65.1,51.5,36.7,49.6,42.8,34.5,94,74,51,30.46,30.32,0,0,0,0.00
2012-5-7,74.5,57.8,40.8,53.9,46.9,38.0,93,70,44,30.33,30.06,0,0,0,0.00
2012-5-8,67.6,55.2,46.2,51.7,45.1,34.4,90,70,53,30.13,30.06,4,0,4,0.00
2012-5-9,58.3,49.1,40.8,41.9,36.2,30.6,79,62,41,30.31,30.13,8,0,8,0.00
2012-5-10,42.1,41.4,40.5,36.0,34.6,32.5,79,77,72,30.33,30.31,0,0,0,0.00
2012-5-11,66.4,50.7,34.9,44.6,38.2,30.8,87,65,42,30.30,30.14,1,0,1,0.00
2012-5-12,76.3,62.5,40.3,51.6,44.9,36.7,87,56,36,30.18,30.07,3,0,3,0.00
2012-5-13,79.5,62.7,44.8,54.4,47.6,40.6,87,61,41,30.15,30.01,1,0,1,0.00
2012-5-14,79.9,70.1,46.8,57.3,49.7,42.1,87,50,40,30.03,29.94,4,0,4,0.00
2012-5-15,71.8,56.5,47.7,55.5,47.7,43.2,88,74,52,30.06,30.00,4,0,4,0.00
2012-5-16,69.3,58.1,43.9,50.8,44.2,38.2,83,61,44,30.06,29.98,0,0,0,0.00
2012-5-17,65.8,54.7,42.3,47.2,41.9,38.1,86,64,44,30.02,29.94,4,0,4,0.00
2012-5-18,62.4,56.2,44.6,46.8,43.2,38.0,82,62,53,30.13,30.01,6,0,6,0.00
2012-5-19,68.7,56.0,39.0,50.6,41.7,35.2,90,62,35,30.08,29.98,3,0,3,0.00
2012-5-20,60.1,55.3,51.1,54.4,49.7,42.2,92,82,64,29.99,29.89,0,0,0,0.00
2012-5-21,59.4,55.4,51.4,57.1,53.3,48.8,95,93,91,29.89,29.75,6,0,6,0.00
2012-5-22,54.9,51.1,48.2,50.3,48.1,45.8,94,89,81,29.90,29.84,6,0,6,0.00
2012-5-23,54.1,49.6,47.8,51.2,47.7,46.2,94,93,89,29.96,29.86,1,0,1,0.00
2012-5-24,62.6,54.9,45.3,53.4,47.8,42.3,95,78,63,29.94,29.75,3,0,3,0.00
2012-5-25,70.9,55.3,41.5,57.1,48.9,39.0,92,80,59,29.88,29.81,1,0,1,0.00
2012-5-26,76.6,61.0,43.9,57.4,48.8,41.6,95,68,36,29.91,29.79,3,0,3,0.00
2012-5-27,64.8,56.7,52.3,50.7,48.2,46.4,82,74,56,30.03,29.91,3,0,3,0.00
2012-5-28,59.7,53.8,47.3,54.7,49.1,44.3,89,84,80,30.09,30.00,0,0,0,0.00
2012-5-29,62.1,54.0,45.3,50.9,45.9,42.6,91,75,56,30.13,30.09,0,0,0,0.00
2012-5-30,69.6,57.4,48.2,52.8,48.6,44.1,88,74,50,30.21,30.09,0,0,0,0.00
2012-5-31,60.6,57.1,54.3,57.7,54.6,50.8,94,91,87,30.11,29.97,0,0,0,0.00
2012-6-1,66.7,59.6,54.0,63.0,56.8,51.2,96,91,82,29.97,29.85,4,0,4,0.00
2012-6-2,64.9,55.5,50.5,55.9,50.9,45.8,93,85,70,29.94,29.81,0,0,0,0.00
2012-6-3,61.5,53.9,46.0,49.8,45.9,42.7,89,75,58,29.96,29.86,0,0,0,0.00
2012-6-4,50.2,47.6,46.0,43.4,42.1,41.4,85,81,77,29.87,29.80,0,0,0,0.00
2012-6-5,54.7,50.8,48.0,50.9,47.3,44.6,93,88,81,30.16,29.77,0,0,0,0.00
2012-6-6,62.4,55.9,46.0,49.9,46.6,43.6,93,72,61,30.15,29.97,0,0,0,0.00
2012-6-7,57.7,51.2,45.3,54.4,48.0,42.0,93,89,84,29.97,29.78,0,0,0,0.00
2012-6-8,62.8,52.5,46.9,50.9,46.9,44.9,93,82,60,30.00,29.90,0,0,0,0.00
2012-6-9,61.2,52.3,47.1,53.2,47.5,45.0,93,84,68,30.19,30.00,0,0,0,0.00
2012-6-10,66.0,56.4,48.7,53.8,48.4,43.9,91,76,59,30.23,30.17,0,0,0,0.00
2012-6-11,75.0,61.5,44.8,57.5,50.5,42.1,93,69,48,30.18,30.02,0,0,0,0.00
2012-6-12,69.3,59.1,54.3,56.8,53.8,49.4,92,83,63,30.03,29.94,0,0,0,0.00
2012-6-13,57.7,53.2,48.2,52.9,50.4,44.5,92,90,80,30.15,29.98,0,0,0,0.00
2012-6-14,58.5,52.8,48.4,50.7,47.4,45.0,89,82,73,30.12,30.07,0,0,0,0.00
2012-6-15,72.5,59.2,42.1,54.9,49.1,39.6,94,71,49,30.15,30.10,0,0,0,0.00
2012-6-16,66.4,60.7,57.0,64.0,57.6,52.8,93,90,83,30.11,29.91,0,0,0,0.00
2012-6-17,60.6,56.5,51.6,58.8,54.3,49.6,94,93,89,29.91,29.85,0,0,0,0.00
2012-6-18,61.3,53.8,49.3,53.6,49.8,47.6,94,87,71,29.99,29.81,0,0,0,0.00
2012-6-19,63.3,56.1,49.3,55.6,51.3,47.3,93,84,68,30.12,30.00,0,0,0,0.00
2012-6-20,75.4,61.9,45.1,59.3,51.8,43.0,95,72,48,30.13,29.89,0,0,0,0.00
2012-6-21,73.9,62.7,50.5,60.1,53.5,46.5,89,73,60,29.91,29.72,0,0,0,0.00
2012-6-22,60.6,54.5,49.6,53.8,50.3,46.2,92,86,76,29.79,29.66,0,0,0,0.00
2012-6-23,61.7,54.8,49.1,57.4,52.2,46.7,94,91,85,29.92,29.66,0,0,0,0.00
2012-6-24,67.6,54.8,44.1,57.2,49.1,41.9,94,82,60,30.03,29.89,3,0,3,0.00
2012-6-25,66.0,55.3,44.4,56.5,50.0,42.0,93,83,69,30.00,29.89,3,0,3,0.00
2012-6-26,52.5,51.7,51.1,49.2,48.8,48.4,91,90,88,29.94,29.88,0,0,0,0.00
2012-6-27,73.2,61.4,47.1,56.3,51.7,44.9,95,73,47,30.03,29.88,0,0,0,0.00
2012-6-28,79.7,64.7,50.2,61.9,53.8,47.2,91,70,46,29.99,29.86,0,0,0,0.00
2012-6-29,73.0,63.1,57.9,60.9,57.9,53.7,89,83,64,30.03,29.97,0,0,0,0.00
2012-6-30,68.2,62.5,55.6,64.1,59.4,53.0,93,90,85,29.97,29.88,0,0,0,0.00
2012-7-1,65.3,58.2,52.9,57.4,53.3,47.5,92,84,73,30.04,29.93,0,0,0,0.00
2012-7-2,68.0,58.3,51.1,55.8,51.9,47.3,90,80,63,30.00,29.84,0,0,0,0.00
2012-7-3,60.4,54.7,51.6,55.7,51.7,49.0,93,90,80,30.12,29.80,6,0,6,0.00
2012-7-4,70.7,59.0,48.9,56.7,50.8,44.8,93,76,57,30.12,29.93,0,0,0,0.00
2012-7-5,75.9,61.7,45.1,59.2,50.9,42.0,93,70,47,30.00,29.95,0,0,0,0.00
2012-7-6,78.1,64.2,48.9,61.6,53.0,45.2,92,69,49,30.10,29.99,0,0,0,0.00
2012-7-7,79.9,65.9,49.6,62.3,54.5,45.7,89,68,51,30.12,29.99,0,0,0,0.00
2012-7-8,82.9,68.1,52.5,65.6,57.1,48.4,89,69,50,30.04,29.93,0,0,0,0.00
2012-7-9,78.4,66.4,55.2,64.4,57.0,51.2,88,73,59,30.08,29.98,0,0,0,0.00
2012-7-10,74.5,61.5,50.2,61.7,54.2,46.6,89,78,63,30.17,30.03,0,0,0,0.00
2012-7-11,80.8,67.1,52.3,66.3,57.4,49.5,92,73,53,30.05,29.94,0,0,0,0.00
2012-7-12,79.9,67.8,53.2,64.9,58.0,49.7,91,73,55,29.97,29.90,1,0,1,0.00
2012-7-13,70.9,63.7,56.8,62.5,58.6,53.3,92,84,72,30.00,29.92,0,0,0,0.00
2012-7-14,77.5,66.9,57.7,67.1,61.2,55.7,93,83,68,29.94,29.87,0,0,0,0.00
2012-7-15,68.5,62.3,57.2,60.5,56.6,53.2,91,82,65,29.92,29.85,4,0,5,0.00
2012-7-16,78.6,66.1,56.3,65.2,59.0,53.7,92,79,63,29.90,29.74,0,0,0,0.00
2012-7-17,78.1,68.2,59.2,67.5,61.5,55.1,91,80,69,29.88,29.76,0,0,0,0.00
2012-7-18,73.2,64.8,59.0,63.0,58.5,55.5,89,80,69,30.02,29.88,4,0,4,0.00
2012-7-19,79.7,69.3,58.1,65.9,60.6,54.2,88,75,61,30.02,29.86,3,0,3,0.00
2012-7-20,65.5,62.5,59.7,61.5,59.4,57.1,93,90,84,30.16,29.90,4,0,4,0.00
2012-7-21,75.6,65.3,56.7,63.0,58.6,52.0,93,80,60,30.16,30.03,0,0,0,0.00
2012-7-22,66.7,58.5,52.9,56.0,52.6,49.7,91,81,66,30.10,30.02,0,0,0,0.00
2012-7-23,65.8,57.3,52.2,57.3,52.9,49.3,92,86,72,30.20,30.10,0,0,0,0.00
2012-7-24,73.0,61.7,50.9,61.2,54.8,48.2,93,79,64,30.14,29.97,0,0,0,0.00
2012-7-25,79.7,66.1,51.1,66.8,58.2,48.2,94,77,62,29.99,29.88,0,0,0,0.00
2012-7-26,80.4,68.5,55.9,66.9,59.9,53.3,92,75,59,29.94,29.86,4,0,4,0.00
2012-7-27,66.0,60.2,55.2,59.2,55.9,51.7,91,86,77,30.07,29.90,0,0,0,0.00
2012-7-28,72.7,63.1,56.1,61.4,56.3,51.6,90,79,62,30.12,30.07,2,0,2,0.00
2012-7-29,75.0,63.3,51.6,61.9,55.5,48.7,92,77,61,30.14,30.06,2,0,2,0.00
2012-7-30,70.7,60.5,52.5,60.5,54.4,48.7,89,81,68,30.14,30.07,1,0,1,0.00
2012-7-31,73.6,62.5,54.1,59.1,54.3,49.4,87,75,59,30.14,30.10,3,0,3,0.00
2012-8-1,74.1,62.1,48.9,61.4,54.0,45.8,92,76,62,30.18,30.11,6,0,6,0.00
2012-8-2,72.1,61.6,52.3,60.6,54.7,48.4,89,79,66,30.15,30.07,4,0,4,0.00
2012-8-3,79.3,65.0,51.1,65.4,57.4,48.2,92,78,61,30.10,29.96,2,0,2,0.00
2012-8-4,89.8,72.8,56.1,70.4,62.8,53.5,94,73,50,29.96,29.80,0,0,0,0.00
2012-8-5,90.1,75.1,61.5,72.7,65.3,58.6,93,73,50,29.94,29.84,0,0,0,0.00
2012-8-6,79.2,69.1,61.0,67.0,61.9,56.3,89,78,64,30.07,29.94,0,0,0,0.00
2012-8-7,67.8,63.5,57.9,62.6,59.6,54.7,92,87,81,30.06,29.99,0,0,0,0.00
2012-8-8,71.8,63.5,56.5,60.9,57.4,52.5,91,81,66,30.19,30.02,0,0,0,0.00
2012-8-9,74.5,62.5,50.5,62.3,55.4,47.7,93,79,64,30.19,30.05,0,0,0,0.00
2012-8-10,76.1,63.5,50.0,63.3,55.7,47.0,93,77,57,30.11,30.00,0,0,0,0.00
2012-8-11,79.9,65.9,52.0,64.8,57.8,49.1,92,76,58,30.06,29.94,0,0,0,0.00
2012-8-12,83.1,68.5,55.0,68.3,59.8,52.2,92,75,58,29.97,29.89,0,0,0,0.00
2012-8-13,82.6,68.0,55.2,67.7,58.0,49.6,91,72,48,29.99,29.93,0,0,0,0.00
2012-8-14,78.6,65.9,53.6,66.0,57.7,49.4,89,76,62,29.98,29.86,0,0,0,0.00
2012-8-15,85.5,68.6,53.8,66.6,58.6,50.8,91,73,50,29.94,29.83,0,0,0,0.00
2012-8-16,90.3,73.0,57.4,68.0,60.1,53.7,91,67,39,29.92,29.84,0,0,0,0.00
2012-8-17,89.4,73.5,59.2,69.4,62.4,55.0,88,70,48,29.94,29.87,0,0,0,0.00
2012-8-18,77.9,66.0,56.8,66.0,59.3,53.3,90,79,66,29.94,29.83,0,0,0,0.00
2012-8-19,70.0,63.1,55.9,62.8,58.9,52.4,92,86,76,30.00,29.91,0,0,0,0.00
2012-8-20,75.7,64.2,54.3,60.9,56.1,50.9,91,76,58,30.02,29.91,0,0,0,0.00
2012-8-21,70.5,61.2,52.0,59.0,53.9,48.5,89,78,64,30.02,29.93,0,0,0,0.00
2012-8-22,70.5,61.2,53.2,56.0,52.3,47.8,86,74,57,30.08,30.01,0,0,0,0.00
2012-8-23,68.2,58.2,51.8,54.3,49.5,45.0,87,74,54,30.09,30.01,0,0,0,0.00
2012-8-24,70.5,59.3,50.5,54.2,50.0,45.0,86,72,53,30.17,29.98,0,0,0,0.00
2012-8-25,78.1,61.2,46.2,58.5,51.7,42.9,90,73,49,29.98,29.70,0,0,0,0.00
2012-8-26,76.8,62.7,50.9,59.3,53.2,47.4,90,73,51,29.93,29.71,0,0,0,0.00
2012-8-27,77.5,64.2,54.3,58.0,52.5,48.8,88,68,42,30.01,29.93,0,0,0,0.00
2012-8-28,73.6,60.9,52.3,56.6,51.4,47.2,86,72,47,30.02,29.97,0,0,0,0.00
2012-8-29,72.3,61.8,55.6,57.1,53.7,49.8,87,75,54,30.10,30.02,0,0,0,0.00
2012-8-30,73.2,61.3,52.2,58.9,52.6,46.4,89,74,54,30.02,29.86,0,0,0,0.00
2012-8-31,68.5,56.9,45.7,56.0,49.1,42.4,90,76,57,29.96,29.89,0,0,0,0.00
2012-9-1,71.8,57.8,45.5,56.3,49.1,42.1,90,74,52,30.11,29.96,0,0,0,0.00
2012-9-2,70.5,58.3,49.1,55.0,49.4,45.2,88,74,54,30.16,30.10,0,0,0,0.00
2012-9-3,70.7,57.4,46.0,57.6,49.5,42.6,91,76,57,30.15,30.07,0,0,0,0.00
2012-9-4,73.9,61.6,46.2,59.4,53.1,42.9,91,75,60,30.18,30.07,0,0,0,0.00
2012-9-5,76.3,61.3,49.6,61.2,53.6,46.5,92,77,57,30.08,29.90,0,0,0,0.00
2012-9-6,79.2,62.6,49.3,61.9,53.4,46.1,92,74,47,30.03,29.92,2,0,2,0.00
2012-9-7,84.6,66.1,51.1,61.6,53.4,47.3,91,68,36,30.11,29.98,0,0,0,0.00
2012-9-8,82.4,66.3,53.4,59.0,53.4,47.6,82,65,38,30.01,29.87,0,0,0,0.00
2012-9-9,65.3,59.8,56.5,54.6,52.9,51.2,89,78,65,29.98,29.91,0,0,0,0.00
2012-9-10,64.0,55.1,47.1,53.6,48.7,41.8,92,80,58,30.19,29.91,0,0,0,0.00
2012-9-11,65.5,53.7,45.7,50.5,44.9,40.2,88,73,53,30.28,30.18,0,0,0,0.00
2012-9-12,70.0,53.2,39.4,53.5,45.2,35.8,91,76,54,30.32,30.19,0,0,0,0.00
2012-9-13,77.7,58.6,43.5,58.0,49.3,40.2,91,74,43,30.20,30.01,0,0,0,0.00
2012-9-14,76.3,60.0,48.0,58.2,51.1,44.3,89,74,48,30.06,29.98,0,0,0,0.00
2012-9-15,73.6,59.2,48.7,59.1,51.8,45.7,90,78,57,30.14,30.02,0,0,0,0.00
2012-9-16,73.0,58.8,46.9,59.1,51.6,44.1,90,78,60,30.18,30.08,0,0,0,0.00
2012-9-17,77.7,60.9,48.7,60.2,53.1,46.0,92,77,53,30.09,29.96,0,0,0,0.00
2012-9-18,78.8,62.8,51.3,60.9,54.7,48.1,92,76,52,30.04,29.97,0,0,0,0.00
2012-9-19,74.5,59.8,49.6,60.1,53.1,46.3,92,80,58,30.12,30.02,0,0,0,0.00
2012-9-20,72.3,58.0,48.7,60.6,52.1,45.7,91,81,63,30.07,29.97,0,0,0,0.00
2012-9-21,60.6,56.6,52.3,55.8,53.1,48.5,91,88,84,30.11,30.06,0,0,0,0.00
2012-9-22,62.6,56.2,48.7,54.4,52.3,45.8,93,87,73,30.12,30.08,0,0,0,0.00
2012-9-23,66.4,53.8,43.9,55.4,48.7,41.5,93,84,67,30.12,30.06,0,0,0,0.00
2012-9-24,68.2,56.1,46.0,55.8,50.0,43.6,93,81,63,30.10,30.05,1,0,1,0.00
2012-9-25,63.1,55.5,49.3,54.7,50.7,45.7,90,84,72,30.11,30.06,0,0,0,0.00
2012-9-26,65.1,52.8,43.2,55.9,48.1,40.3,92,84,70,30.09,30.01,0,0,0,0.00
2012-9-27,68.9,56.8,45.5,59.0,51.5,43.3,93,83,67,30.04,29.91,0,0,0,0.00
2012-9-28,70.3,58.7,51.1,61.2,54.2,47.9,94,86,67,29.99,29.89,0,0,0,0.00
2012-9-29,65.8,56.9,46.8,55.9,50.7,42.6,90,80,66,30.26,29.98,0,0,0,0.00
2012-9-30,65.3,51.4,40.8,52.3,44.6,37.5,93,79,54,30.36,30.25,0,0,0,0.00
2012-10-1,71.2,55.6,44.2,59.3,49.6,41.1,93,81,63,30.32,30.08,0,0,0,0.00
2012-10-2,60.6,50.7,41.2,47.4,40.2,34.8,90,70,39,30.24,30.11,0,0,0,0.00
2012-10-3,63.5,46.7,34.3,43.5,36.5,30.2,89,70,40,30.35,30.23,0,0,0,0.00
2012-10-4,63.1,47.3,34.7,43.4,37.4,30.2,86,70,47,30.26,30.19,0,0,0,0.00
2012-10-5,66.2,49.1,36.3,45.4,38.1,32.4,88,69,39,30.26,30.16,0,0,0,0.00
2012-10-6,68.4,51.0,37.6,46.2,38.8,32.3,84,66,36,30.21,30.07,0,0,0,0.00
2012-10-7,70.2,52.6,39.4,50.5,42.8,34.6,87,71,44,30.07,29.89,0,0,0,0.00
2012-10-8,67.5,52.7,41.7,50.2,44.2,37.8,89,74,51,29.99,29.89,0,0,0,0.00
2012-10-9,54.1,47.9,42.4,49.4,44.1,39.4,90,87,82,30.09,29.98,0,0,0,0.00
2012-10-10,53.4,46.5,39.0,49.0,43.3,36.3,92,89,84,30.00,29.94,0,0,0,0.00
2012-10-11,55.9,49.4,42.6,49.1,45.3,39.6,90,86,77,29.96,29.75,0,0,0,0.00
2012-10-12,54.3,49.8,41.5,51.5,47.4,38.8,94,92,88,29.95,29.77,0,0,0,0.00
2012-10-13,58.6,55.4,52.3,56.6,53.5,50.6,95,93,90,30.09,29.95,0,0,0,0.00
2012-10-14,59.4,57.0,55.9,57.1,55.6,54.5,96,95,92,30.07,29.83,0,0,0,0.00
2012-10-15,59.5,55.7,49.1,58.7,54.2,47.7,97,95,90,29.91,29.48,0,0,0,0.00
2012-10-16,57.6,50.6,45.3,56.1,47.2,42.3,95,88,78,30.24,29.52,0,0,0,0.00
2012-10-17,55.6,47.6,40.3,48.3,44.0,38.4,94,88,71,30.30,30.16,0,0,0,0.00
2012-10-18,53.8,49.4,43.3,52.4,47.2,41.2,96,92,89,30.17,29.74,0,0,0,0.00
2012-10-19,57.0,50.9,44.8,55.4,49.2,43.2,96,94,92,29.79,29.71,0,0,0,0.00
2012-10-20,48.9,44.1,41.5,45.3,41.8,39.4,94,92,86,29.85,29.75,0,0,0,0.00
2012-10-21,49.5,42.6,36.1,44.7,39.8,34.1,94,90,81,29.84,29.74,0,0,0,0.00
2012-10-22,44.4,39.5,34.2,43.1,38.0,32.3,95,94,93,29.74,29.50,0,0,0,0.00
2012-10-23,49.3,43.5,39.9,46.0,41.5,38.3,96,93,87,29.84,29.61,0,0,0,0.00
2012-10-24,49.3,42.1,37.9,47.3,40.5,36.0,96,94,91,30.12,29.81,0,0,0,0.02
2012-10-25,50.2,43.8,40.3,47.4,42.1,38.7,96,94,89,30.36,30.12,0,0,0,0.92
2012-10-26,47.5,43.4,40.1,46.7,42.2,38.5,97,95,94,30.27,29.98,0,0,0,0.02
2012-10-27,52.7,49.1,47.5,52.1,48.1,46.7,98,96,94,29.99,29.72,0,0,0,0.04
2012-10-28,57.0,53.7,51.1,55.6,52.9,50.5,99,97,94,29.91,29.71,0,0,0,0.00
2012-10-29,60.3,55.7,51.1,56.6,54.0,50.2,99,94,85,29.97,29.67,0,0,0,0.00
2012-10-30,57.7,54.8,52.3,57.2,54.1,51.7,99,98,95,29.94,29.72,0,0,0,0.02
2012-10-31,57.0,54.5,52.0,56.7,54.2,51.4,99,99,98,29.73,29.58,0,0,0,0.00
2012-11-1,54.5,51.8,50.0,53.9,51.4,49.4,99,99,98,29.98,29.68,0,0,0,0.00
2012-11-2,59.0,52.8,48.9,58.1,52.3,48.6,99,98,95,30.00,29.92,0,0,0,0.00
2012-11-3,55.6,53.1,50.7,54.7,52.6,50.3,99,98,97,30.13,29.92,0,0,0,0.00
2012-11-4,59.9,56.0,52.0,59.6,55.6,51.7,99,99,97,30.27,30.13,0,0,0,0.00
2012-11-5,54.7,50.0,43.3,53.8,49.1,42.5,98,97,94,30.35,30.12,0,0,0,0.00
2012-11-6,54.0,48.7,43.3,52.6,47.7,42.5,98,96,90,30.13,29.88,0,0,0,0.00
2012-11-7,48.7,43.8,36.3,47.9,42.7,35.2,98,96,92,30.10,29.90,0,0,0,0.00
2012-11-8,44.4,36.5,32.2,42.9,35.5,31.2,98,96,93,29.90,29.76,0,0,0,0.00
2012-11-9,44.2,34.7,30.4,41.5,33.4,29.4,98,95,89,29.90,29.79,0,0,0,0.00
2012-11-10,40.5,33.0,29.3,37.1,31.2,28.0,97,93,83,30.17,29.90,0,0,0,0.00
2012-11-11,41.5,36.2,29.5,41.0,35.3,28.2,98,97,95,30.19,30.03,0,0,0,0.00
2012-11-12,47.3,44.5,41.5,47.0,44.1,41.0,99,98,98,30.17,30.03,0,0,0,0.00
2012-11-13,49.6,46.7,45.3,49.4,46.3,44.8,99,99,98,30.17,30.09,0,0,0,0.00
2012-11-14,50.2,44.6,36.1,49.1,43.9,35.3,99,97,95,30.27,30.12,0,0,0,0.00
2012-11-15,46.2,37.9,32.2,45.7,37.2,31.4,99,97,97,30.23,29.89,0,0,0,0.00
2012-11-16,45.7,39.1,32.5,45.4,38.7,31.8,99,98,97,29.90,29.67,0,0,0,0.00
2012-11-17,51.6,45.2,40.5,49.7,44.5,39.6,99,97,88,29.70,29.41,0,0,0,0.00
2012-11-18,45.1,43.3,41.4,44.9,42.6,40.5,99,97,96,29.73,29.49,0,0,0,0.00
2012-11-19,50.2,47.2,44.6,49.9,46.8,44.1,99,99,98,29.65,29.32,0,0,0,0.00
2012-11-20,47.7,45.3,42.1,47.4,44.8,41.5,99,98,97,29.66,29.48,0,0,0,0.00
2012-11-21,43.7,41.9,38.8,42.4,41.1,38.0,98,97,95,30.25,29.47,0,0,0,0.00
2012-11-22,44.8,40.5,36.7,44.2,39.8,36.1,99,97,96,30.32,30.13,0,0,0,0.00
2012-11-23,48.6,45.7,42.4,48.3,45.2,41.6,99,98,93,30.15,29.98,0,0,0,0.00
2012-11-24,46.0,40.5,34.7,45.8,39.9,33.9,99,98,96,30.22,30.07,0,0,0,0.00
2012-11-25,42.4,36.0,30.7,41.6,35.3,30.0,99,97,96,30.30,30.17,0,0,0,0.00
2012-11-26,30.9,29.7,28.2,30.2,29.0,27.5,98,97,97,30.19,30.07,0,0,0,0.00
2012-11-28,46.2,45.7,44.8,46.0,45.4,44.5,99,99,99,29.69,29.65,0,0,0,0.00
2012-11-29,49.1,46.8,44.8,48.6,46.3,44.5,99,98,96,29.68,29.41,0,0,0,0.00
2012-11-30,49.3,46.7,44.4,49.0,46.4,44.1,99,99,99,29.44,29.33,0,0,0,0.00
2012-12-1,46.6,45.3,42.6,46.3,44.7,41.8,99,98,96,29.60,29.27,6,0,6,0.00
2012-12-2,44.8,43.7,43.0,44.2,43.2,42.2,99,98,96,29.74,29.14,4,0,4,0.00
2012-12-3,47.1,44.7,43.3,46.4,44.0,42.6,99,97,96,29.96,29.58,10,0,10,0.00
2012-12-4,49.3,46.2,43.2,49.0,45.5,42.4,99,97,94,29.77,29.49,7,0,7,0.00
2012-12-5,44.8,41.9,38.5,42.5,40.1,37.1,97,93,89,30.14,29.77,0,0,0,0.00
2012-12-6,42.6,40.7,38.5,41.8,39.7,37.7,97,96,94,30.13,29.99,0,0,0,0.00
2012-12-7,43.2,39.2,35.4,42.9,38.4,34.3,99,97,94,30.08,29.89,0,0,0,0.00
2012-12-8,37.9,34.6,32.7,37.4,33.9,31.9,98,97,97,30.30,30.08,0,0,0,0.00
2012-12-9,39.9,36.7,33.4,39.6,36.3,32.9,99,98,98,30.32,30.23,0,0,0,0.00
2012-12-10,42.1,40.3,39.0,41.5,40.0,38.5,99,99,98,30.37,30.05,0,0,0,0.00
2012-12-11,42.4,40.5,39.4,41.9,40.0,38.8,99,98,97,30.04,29.52,4,0,4,0.00
2012-12-12,41.5,39.1,35.4,41.0,38.6,34.6,99,98,97,29.98,29.56,0,0,0,0.00
2012-12-13,41.2,37.9,35.4,40.6,37.2,34.6,98,98,97,29.99,29.75,0,0,0,0.00
2012-12-14,40.3,36.0,31.6,39.5,35.3,30.9,98,97,96,29.89,29.74,0,0,0,0.00
2012-12-15,37.9,33.9,30.6,37.4,33.3,29.8,98,98,97,29.88,29.49,0,0,0,0.00
2012-12-16,39.7,37.2,34.2,39.3,36.8,33.6,99,98,98,29.70,28.96,3,0,3,0.00
2012-12-17,42.1,37.9,33.8,41.8,37.4,33.0,99,98,97,29.83,28.93,5,0,5,0.00
2012-12-18,36.0,33.8,32.9,35.4,33.1,32.1,98,98,97,29.93,29.82,0,0,0,0.00
2012-12-19,38.5,35.7,33.1,38.2,35.2,32.5,99,98,98,29.91,29.53,0,0,0,0.00
2012-12-20,40.1,38.1,33.4,39.8,37.7,32.7,99,98,98,29.78,29.48,0,0,0,0.00
2012-12-21,40.8,34.6,30.4,40.4,34.1,29.9,99,98,98,29.77,29.64,0,0,0,0.00
2012-12-22,43.5,38.4,34.7,43.3,38.0,34.3,99,98,96,29.70,29.45,0,0,0,0.00
2012-12-23,43.5,39.7,37.0,43.0,39.1,36.2,99,98,97,29.77,29.57,0,0,0,0.00
2012-12-24,42.1,38.1,35.4,41.4,37.4,34.9,99,98,97,30.11,29.77,0,0,0,0.00
2012-12-25,39.0,37.0,34.0,38.2,36.3,33.4,99,97,94,30.01,29.61,2,0,2,0.00
2012-12-26,43.0,39.2,36.7,42.4,38.5,35.9,98,98,96,29.87,29.66,0,0,0,0.00
2012-12-27,41.9,39.4,37.4,41.4,38.9,36.9,99,98,97,30.12,29.86,0,0,0,0.00
2012-12-28,43.5,38.3,34.9,43.3,37.9,34.3,99,98,97,30.12,30.06,0,0,0,0.00
2012-12-29,39.6,37.1,35.2,39.0,36.5,34.7,98,98,97,30.18,30.10,0,0,0,0.00
2012-12-30,37.0,34.2,31.1,36.5,33.4,30.3,98,97,96,30.26,30.17,0,0,0,0.00
2012-12-31,37.4,33.0,30.7,36.6,32.3,30.0,98,97,96,30.40,30.19,0,0,0,0.00
2013-1-1,35.2,31.2,27.7,34.7,30.5,26.9,98,97,97,30.44,30.30,0,0,0,0.00